Weather History for Cheboygan, MI

Change the Weather History Date:

Wednesday, November 28, 2012

  Actual Average (KPLN) Record (KPLN)
Temperature  
Mean Temperature 28 °F -  
Max Temperature 31 °F 36 °F 61 °F (1990)
Min Temperature 24 °F 22 °F 0 °F (2013)
Degree Days  
Heating Degree Days 38    
Moisture  
Dew Point 21 °F    
Average Humidity 75    
Maximum Humidity 94    
Minimum Humidity 59    
Precipitation  
Precipitation 0.00 in - - ()
Sea Level Pressure  
Sea Level Pressure 30.13 in    
Wind  
Wind Speed 9 mph (West)    
Max Wind Speed 16 mph    
Max Gust Speed 21 mph    
Visibility 8 miles    
Events Snow    
Averages and records for this station are not official NWS values.
T = Trace of Precipitation, MM = Missing Value Source: NWS Daily Summary

Daily Weather History Graph

Daily Weather History Graph

Search for Another Location

Airport:

Trip Planner

Search our weather history database for the weather conditions in past years. The results will help you decide how hot, cold, wet, or windy it might be!

Date:

Astronomy

Nov. 28, 2012 Rise Set
Actual Time 7:55 AM EST 4:56 PM EST
Civil Twilight 7:21 AM EST 5:30 PM EST
Nautical Twilight 6:44 AM EST 6:07 PM EST
Astronomical Twilight 6:09 AM EST 6:42 PM EST
Moon 5:10 PM EST (11/28) 7:52 AM EST (11/28)
Length of Visible Light 10h 08m
Length of Day
9h 01m
Full, 100% of the Moon is Illuminated
Nov 28
Full
Dec 6
Last Quarter
Dec 13
New
Dec 20
First Quarter
Dec 28
Full

Hourly Weather History & Observations

Time (EST) Temp. Windchill Dew Point Humidity Pressure Visibility Wind Dir Wind Speed Gust Speed Precip Events Conditions
12:15 AM 30.0 °F 23.2 °F 28.0 °F 92% 30.04 in 1.8 mi SW 6.9 mph - N/A Snow Light Snow
12:56 AM 30.0 °F 22.4 °F 28.4 °F 94% 30.04 in 1.2 mi WSW 8.1 mph - N/A Snow Light Snow
1:15 AM 31.1 °F 22.4 °F 28.9 °F 92% 30.03 in 2.5 mi West 10.4 mph - N/A Snow Light Snow
1:35 AM 30.9 °F 24.3 °F 28.4 °F 90% 30.03 in 2.0 mi West 6.9 mph - N/A Snow Light Snow
1:56 AM 30.7 °F 22.6 °F 28.4 °F 91% 30.03 in 1.8 mi WSW 9.2 mph - N/A Snow Light Snow
2:15 AM 30.6 °F 24.7 °F 28.2 °F 91% 30.03 in 2.5 mi West 5.8 mph - N/A Snow Light Snow
2:35 AM 30.7 °F 24.1 °F 28.4 °F 91% 30.04 in 2.0 mi West 6.9 mph - N/A Snow Light Snow
2:55 AM 30.7 °F 24.1 °F 28.6 °F 92% 30.05 in 2.5 mi West 6.9 mph - N/A Snow Light Snow
3:15 AM 30.7 °F 23.3 °F 28.4 °F 91% 30.05 in 5.0 mi West 8.1 mph - N/A Snow Light Snow
3:35 AM 30.2 °F 24.3 °F 27.7 °F 90% 30.05 in 7.0 mi West 5.8 mph - N/A   Overcast
3:55 AM 30.2 °F 24.3 °F 27.3 °F 89% 30.05 in 10.0 mi WSW 5.8 mph - N/A   Mostly Cloudy
4:16 AM 30.2 °F 24.3 °F 26.6 °F 86% 30.05 in 10.0 mi West 5.8 mph - N/A   Overcast
4:35 AM 31.1 °F 21.4 °F 27.1 °F 85% 30.05 in 10.0 mi West 12.7 mph 18.4 mph N/A Snow Light Snow
4:55 AM 31.1 °F 20.9 °F 27.1 °F 85% 30.06 in 7.0 mi WNW 13.8 mph 17.3 mph N/A Snow Light Snow
5:15 AM 30.6 °F 20.2 °F 25.5 °F 82% 30.08 in 10.0 mi NW 13.8 mph 19.6 mph N/A   Overcast
5:35 AM 30.2 °F 21.3 °F 24.6 °F 80% 30.08 in 10.0 mi NW 10.4 mph 17.3 mph N/A   Overcast
5:55 AM 29.8 °F 22.2 °F 24.3 °F 80% 30.08 in 10.0 mi NW 8.1 mph - N/A   Overcast
6:15 AM 29.7 °F 20.1 °F 24.1 °F 80% 30.09 in 7.0 mi WNW 11.5 mph - N/A Snow Light Snow
6:35 AM 29.7 °F 20.7 °F 24.3 °F 80% 30.10 in 7.0 mi NW 10.4 mph 16.1 mph N/A Snow Light Snow
6:55 AM 29.7 °F 20.1 °F 23.7 °F 79% 30.10 in 10.0 mi NW 11.5 mph - N/A Snow Light Snow
7:15 AM 29.5 °F 20.4 °F 23.2 °F 77% 30.11 in 7.0 mi NW 10.4 mph - N/A Snow Light Snow
7:35 AM 29.1 °F 19.4 °F 22.8 °F 77% 30.12 in 5.0 mi NW 11.5 mph 19.6 mph N/A Snow Light Snow
7:55 AM 28.8 °F 17.5 °F 22.1 °F 76% 30.12 in 7.0 mi NW 15.0 mph 18.4 mph N/A Snow Light Snow
8:15 AM 28.4 °F 18.0 °F 21.9 °F 77% 30.13 in 7.0 mi NW 12.7 mph 19.6 mph N/A Snow Light Snow
8:35 AM 28.4 °F 17.5 °F 20.1 °F 71% 30.14 in 7.0 mi NW 13.8 mph 20.7 mph N/A Snow Light Snow
8:55 AM 28.4 °F 18.0 °F 20.3 °F 72% 30.15 in 5.0 mi NW 12.7 mph 19.6 mph N/A Snow Light Snow
9:15 AM 28.4 °F 20.4 °F 20.8 °F 73% 30.16 in 7.0 mi NW 8.1 mph - N/A Snow Light Snow
9:35 AM 28.4 °F 19.1 °F 20.5 °F 72% 30.17 in 7.0 mi WNW 10.4 mph - N/A Snow Light Snow
9:55 AM 28.4 °F 18.5 °F 21.9 °F 77% 30.18 in 3.0 mi NW 11.5 mph - N/A Snow Light Snow
10:15 AM 28.4 °F 17.5 °F 21.0 °F 74% 30.18 in 3.0 mi NW 13.8 mph 20.7 mph N/A Snow Light Snow
10:35 AM 28.2 °F 20.2 °F 20.3 °F 72% 30.19 in 5.0 mi WNW 8.1 mph - N/A Snow Light Snow
10:55 AM 28.6 °F 19.3 °F 20.3 °F 71% 30.19 in 5.0 mi WNW 10.4 mph - N/A Snow Light Snow
11:15 AM 28.8 °F 17.5 °F 19.6 °F 69% 30.19 in 7.0 mi WNW 15.0 mph - N/A Snow Light Snow
11:35 AM 29.3 °F 20.8 °F 18.9 °F 65% 30.18 in 10.0 mi West 9.2 mph - N/A   Overcast
11:55 AM 29.7 °F 19.1 °F 17.1 °F 59% 30.18 in 10.0 mi WNW 13.8 mph 17.3 mph N/A   Overcast
12:15 PM 28.4 °F 18.5 °F 19.9 °F 71% 30.19 in 10.0 mi WNW 11.5 mph - N/A   Overcast
12:35 PM 29.1 °F 18.4 °F 18.5 °F 65% 30.20 in 10.0 mi WNW 13.8 mph - N/A   Overcast
12:56 PM 29.1 °F 17.9 °F 17.6 °F 62% 30.19 in 10.0 mi WNW 15.0 mph 20.7 mph N/A   Overcast
1:15 PM 29.1 °F 18.9 °F 16.3 °F 59% 30.19 in 10.0 mi WNW 12.7 mph - N/A   Overcast
1:35 PM 28.8 °F 18.4 °F 17.4 °F 63% 30.19 in 10.0 mi WNW 12.7 mph - N/A   Overcast
1:55 PM 28.9 °F 19.8 °F 17.4 °F 62% 30.19 in 10.0 mi WNW 10.4 mph 19.6 mph N/A   Overcast
2:15 PM 28.4 °F 16.6 °F 18.1 °F 65% 30.19 in 10.0 mi WNW 16.1 mph - N/A   Overcast
2:35 PM 28.8 °F 17.9 °F 17.8 °F 64% 30.18 in 10.0 mi West 13.8 mph - N/A   Overcast
2:56 PM 28.6 °F 18.7 °F 17.8 °F 64% 30.19 in 10.0 mi WNW 11.5 mph - N/A   Overcast
3:15 PM 28.4 °F 19.7 °F 18.5 °F 66% 30.19 in 10.0 mi West 9.2 mph - N/A   Overcast
3:35 PM 28.4 °F 19.1 °F 17.4 °F 63% 30.19 in 10.0 mi West 10.4 mph - N/A   Overcast
3:56 PM 28.4 °F 21.2 °F 17.6 °F 64% 30.18 in 10.0 mi West 6.9 mph - N/A   Overcast
4:15 PM 28.4 °F 22.2 °F 18.0 °F 65% 30.19 in 10.0 mi West 5.8 mph - N/A   Overcast
4:35 PM 28.0 °F - 18.0 °F 66% 30.18 in 10.0 mi Calm Calm - N/A   Overcast
4:55 PM 27.5 °F - 18.5 °F 69% 30.19 in 10.0 mi Calm Calm - N/A   Overcast
5:15 PM 27.9 °F 18.4 °F 17.2 °F 64% 30.19 in 10.0 mi West 10.4 mph - N/A   Mostly Cloudy
5:35 PM 27.5 °F 20.2 °F 16.3 °F 63% 30.19 in 10.0 mi West 6.9 mph - N/A   Mostly Cloudy
5:55 PM 27.0 °F 20.5 °F 16.3 °F 64% 30.19 in 10.0 mi WSW 5.8 mph - N/A   Mostly Cloudy
6:15 PM 25.7 °F 21.5 °F 15.8 °F 66% 30.18 in 10.0 mi West 3.5 mph - N/A   Scattered Clouds
6:35 PM 24.8 °F - 16.2 °F 70% 30.19 in 10.0 mi Calm Calm - N/A   Clear
6:55 PM 24.3 °F - 16.5 °F 72% 30.19 in 10.0 mi Calm Calm - N/A   Mostly Cloudy
7:15 PM 24.8 °F - 16.9 °F 72% 30.18 in 10.0 mi Calm Calm - N/A   Overcast
7:35 PM 24.4 °F - 17.1 °F 73% 30.18 in 10.0 mi Calm Calm - N/A   Mostly Cloudy
7:55 PM 25.2 °F 20.9 °F 16.9 °F 71% 30.17 in 10.0 mi South 3.5 mph - N/A   Mostly Cloudy
8:16 PM 24.8 °F 19.1 °F 16.9 °F 72% 30.17 in 10.0 mi South 4.6 mph - N/A   Mostly Cloudy
8:35 PM 24.8 °F - 17.1 °F 72% 30.17 in 10.0 mi Calm Calm - N/A   Mostly Cloudy
8:55 PM 24.6 °F 20.3 °F 17.8 °F 75% 30.16 in 10.0 mi South 3.5 mph - N/A   Overcast
9:16 PM 25.7 °F 20.1 °F 18.9 °F 75% 30.15 in 10.0 mi South 4.6 mph - N/A   Overcast
9:35 PM 26.6 °F 20.0 °F 19.8 °F 75% 30.14 in 10.0 mi South 5.8 mph - N/A   Overcast
9:55 PM 27.3 °F 19.1 °F 20.3 °F 75% 30.13 in 10.0 mi SSW 8.1 mph - N/A   Mostly Cloudy
10:15 PM 27.5 °F 19.3 °F 21.0 °F 77% 30.12 in 10.0 mi SSW 8.1 mph - N/A   Scattered Clouds
10:35 PM 28.4 °F 19.7 °F 21.6 °F 76% 30.11 in 10.0 mi SW 9.2 mph - N/A   Mostly Cloudy
10:55 PM 28.9 °F 19.8 °F 21.9 °F 75% 30.10 in 10.0 mi SW 10.4 mph - N/A   Mostly Cloudy
11:15 PM 28.6 °F 19.3 °F 21.7 °F 76% 30.10 in 10.0 mi SW 10.4 mph - N/A   Scattered Clouds
11:34 PM 29.1 °F 20.0 °F 22.1 °F 75% 30.10 in 10.0 mi SW 10.4 mph - N/A   Clear
11:55 PM 29.1 °F 21.3 °F 22.1 °F 75% 30.10 in 10.0 mi SW 8.1 mph - N/A   Clear